Regional Weather Roundup
Issued by NWS

Home | Current Version | Previous Version | Text Only | Print | Product List | Glossary On
Versions: 1 2 3 4 5 6 7 8 9 10 11 12 13 14 15 16 17 18 19 20 21 22 23 24 25 26 27 28 29 30 31 32 33 34 35 36 37 38 39 40 41 42 43 44 45 46 47 48 49 50
107
ASUS44 KLIX 270312
RWRLA
LOUISIANA REGIONAL WEATHER ROUNDUP
NATIONAL WEATHER SERVICE NEW ORLEANS LA
ISSUED BY NATIONAL WEATHER SERVICE MOBILE AL
1000 PM CDT SUN JUN 26 2016

NOTE: "FAIR" INDICATES FEW OR NO CLOUDS BELOW 12,000 FEET WITH NO
      SIGNIFICANT WEATHER AND/OR OBSTRUCTIONS TO VISIBILITY.
      SKY/WX - SKY CONDITION AND SIGNIFICANT WEATHER.
      TMP - AIR TEMPERATURE.    DP   - DEWPOINT TEMPERATURE.
      RH  - RELATIVE HUMIDITY.  PRES - PRESSURE.
      HX  - HEAT INDEX.         WCI  - WIND CHILL INDEX.

LAZ040-048-061>063-065-066-069-270400-
SOUTHEAST LOUISIANA


CITY           SKY/WX    TMP DP  RH WIND       PRES   REMARKS
N.O. AUDUBON   NOT AVBL
N.O. INTL ARPT PTCLDY    87  77  72 S9        30.04R HX  99
N.O. LAKEFRONT CLEAR     87  74  64 S8        30.04R HX  95
SLIDELL        CLEAR     84  77  79 CALM      30.04R
BELLE CHASSE   CLEAR     82  77  84 SW3       30.04R
BATON ROUGE    CLEAR     82  76  81 CALM      30.02R
HAMMOND        PTCLDY    81  72  74 CALM      30.03R
SALT POINT       N/A     86  77  74 S3        30.01  HX  97
HOUMA          CLEAR     82  77  85 CALM      30.04S
GALLIANO       CLEAR     80  75  85 S3        30.04R
BOOTHVILLE     CLEAR     83  73  72 S5        30.05R
PORT FOURCHON  CLEAR     86  75  70 S6        30.05R HX  95

$$

LAZ041-044-053-054-270400-
SOUTHWEST LOUISIANA


CITY           SKY/WX    TMP DP  RH WIND       PRES   REMARKS
LAKE CHARLES   CLEAR     82  76  81 W3        30.04R
LAFAYETTE      CLEAR     84  77  79 SW6       30.04R
PATTERSON      CLEAR     82  79  90 S5        30.05R
NEW IBERIA     CLEAR     83  77  82 SW3       30.04R
CHENAULT AIRPK CLEAR     84  75  74 CALM      30.02S
SULPHUR        PTCLDY    82  78  89 CALM      30.05R

$$

LAZ027-028-270400-
CENTRAL LOUISIANA


CITY           SKY/WX    TMP DP  RH WIND       PRES   REMARKS
FORT POLK      CLEAR     85  76  75 W3        30.05R HX  95
EAST FORT POLK NOT AVBL
AEXANDRIA INTL CLEAR     83  76  79 CALM      30.02R
ALEXANDRIA     CLEAR     81  77  88 CALM      30.04R
DERIDDER       CLEAR     82  78  90 CALM      30.07R
OAKDALE        CLEAR     79  78  98 CALM      30.04R FOG
PEASON RIDGE   CLEAR     79  76  90 CALM      30.04R

$$

LAZ001-002-270400-
NORTHWEST LOUISIANA


CITY           SKY/WX    TMP DP  RH WIND       PRES   REMARKS
SHREVEPORT     PTCLDY    82  78  88 CALM      30.05R
BARKSDALE AFB  CLEAR     80  79  96 SE3       30.05R
DTN SHREVEPORT CLEAR     80  76  87 CALM      30.04R
NATCHITOCHES   CLEAR     82  79  92 CALM      30.05R

$$

LAZ004-006-270400-
NORTHEAST LOUISIANA


CITY           SKY/WX    TMP DP  RH WIND       PRES   REMARKS
MONROE         CLEAR     82  78  88 CALM      30.06R
BASTROP        CLEAR     80  79  98 CALM      30.07R
RUSTON         CLEAR     80  77  92 CALM      30.09R
TALLULAH       CLEAR     81  78  91 CALM      30.05R

$$





USA.gov is the U.S. government's official web portal to all federal, state and local government web resources and services.